Weather History for KIBM - November, 2013

Change the Weather History Date:

Friday, November 15, 2013

  Actual Average (KSNY) Record (KSNY)
Temperature  
Mean Temperature 46 °F 38 °F  
Max Temperature 61 °F 51 °F 76 °F (1999)
Min Temperature 31 °F 24 °F -4 °F (2014)
Degree Days  
Heating Degree Days 19 27  
Month to date heating degree days 358  
Since 1 July heating degree days 961  
Cooling Degree Days 0 0  
Month to date cooling degree days 0  
Year to date cooling degree days 830  
Moisture  
Dew Point 24 °F    
Average Humidity 53    
Maximum Humidity 90    
Minimum Humidity 14    
Precipitation  
Precipitation 0.00 in 0.02 in 0.37 in (1985)
Month to date precipitation 0.28  
Year to date precipitation 17.71  
Sea Level Pressure  
Sea Level Pressure 29.58 in    
Wind  
Wind Speed 8 mph (SW)    
Max Wind Speed 21 mph    
Max Gust Speed 22 mph    
Visibility 10 miles    
Events      
T = Trace of Precipitation, MM = Missing Value Source: NWS Daily Summary

Daily Weather History Graph

Daily Weather History Graph

Search for Another Location

Airport or City:

Trip Planner

Search our weather history database for the weather conditions in past years. The results will help you decide how hot, cold, wet, or windy it might be!

Date:

Astronomy

Nov. 15, 2013 Rise Set
Actual Time 7:42 AM CST 5:35 PM CST
Civil Twilight 7:13 AM CST 6:04 PM CST
Nautical Twilight 6:39 AM CST 6:38 PM CST
Astronomical Twilight 6:07 AM CST 7:10 PM CST
Moon 4:34 PM CST (11/15) 5:40 AM CST (11/15)
Length of Visible Light 10h 51m
Length of Day
9h 52m
Waxing Gibbous, 96% of the Moon is Illuminated
Nov 15
Waxing Gibbous
Nov 17
Full
Nov 25
Last Quarter
Dec 2
New
Dec 9
First Quarter

Hourly Weather History & Observations

Time (CST) Temp. Windchill Dew Point Humidity Pressure Visibility Wind Dir Wind Speed Gust Speed Precip Events Conditions
12:15 AM 35.8 °F 31.9 °F 30.7 °F 82% 29.78 in 10.0 mi South 4.6 mph - N/A   Clear
12:55 AM 35.1 °F 28.6 °F 30.6 °F 84% 29.77 in 10.0 mi South 8.1 mph - N/A   Clear
1:15 AM 35.1 °F 27.4 °F 30.7 °F 84% 29.75 in 10.0 mi South 10.4 mph - N/A   Clear
1:35 AM 35.6 °F 28.0 °F 30.7 °F 82% 29.74 in 10.0 mi SSE 10.4 mph - N/A   Clear
1:55 AM 35.8 °F 29.4 °F 30.7 °F 82% 29.73 in 10.0 mi South 8.1 mph - N/A   Clear
2:15 AM 34.9 °F 27.1 °F 30.4 °F 84% 29.72 in 10.0 mi SSE 10.4 mph - N/A   Clear
2:35 AM 34.0 °F 27.2 °F 30.2 °F 86% 29.72 in 10.0 mi South 8.1 mph - N/A   Clear
2:55 AM 35.8 °F 27.8 °F 30.9 °F 82% 29.72 in 10.0 mi South 11.5 mph - N/A   Clear
3:15 AM 34.9 °F 28.3 °F 30.0 °F 82% 29.71 in 10.0 mi South 8.1 mph - N/A   Clear
3:35 AM 34.7 °F 27.5 °F 30.2 °F 84% 29.69 in 10.0 mi South 9.2 mph - N/A   Clear
3:55 AM 34.7 °F 26.4 °F 30.6 °F 85% 29.68 in 10.0 mi SSE 11.5 mph - N/A   Clear
4:15 AM 34.2 °F 29.0 °F 30.2 °F 85% 29.68 in 10.0 mi South 5.8 mph - N/A   Clear
4:35 AM 34.0 °F 28.8 °F 30.2 °F 86% 29.67 in 10.0 mi South 5.8 mph - N/A   Clear
4:55 AM 33.6 °F 26.8 °F 30.2 °F 87% 29.67 in 10.0 mi SSW 8.1 mph - N/A   Clear
5:15 AM 32.9 °F 27.5 °F 29.8 °F 88% 29.67 in 10.0 mi WSW 5.8 mph - N/A   Clear
5:35 AM 32.0 °F 26.4 °F 29.3 °F 90% 29.68 in 10.0 mi West 5.8 mph - N/A   Clear
5:55 AM 32.0 °F 25.6 °F 29.1 °F 89% 29.67 in 10.0 mi WSW 6.9 mph - N/A   Clear
6:15 AM 31.8 °F 26.2 °F 28.9 °F 89% 29.66 in 10.0 mi WSW 5.8 mph - N/A   Clear
6:35 AM 31.6 °F 28.3 °F 28.4 °F 88% 29.65 in 10.0 mi WSW 3.5 mph - N/A   Clear
6:55 AM 31.5 °F 26.8 °F 28.4 °F 88% 29.66 in 10.0 mi SSW 4.6 mph - N/A   Clear
7:15 AM 31.6 °F 27.0 °F 28.6 °F 88% 29.65 in 10.0 mi SSW 4.6 mph - N/A   Clear
7:35 AM 31.8 °F 26.2 °F 28.8 °F 88% 29.64 in 10.0 mi SW 5.8 mph - N/A   Clear
7:55 AM 31.8 °F 26.2 °F 28.4 °F 87% 29.64 in 10.0 mi WSW 5.8 mph - N/A   Clear
8:15 AM 31.1 °F 27.7 °F 28.2 °F 89% 29.64 in 10.0 mi West 3.5 mph - N/A   Clear
8:35 AM 31.6 °F 25.1 °F 28.9 °F 90% 29.64 in 10.0 mi West 6.9 mph - N/A   Clear
8:55 AM 35.6 °F 31.7 °F 31.1 °F 84% 29.64 in 10.0 mi West 4.6 mph - N/A   Clear
9:15 AM 38.7 °F 32.9 °F 31.8 °F 76% 29.64 in 10.0 mi WSW 8.1 mph - N/A   Clear
10:15 AM 48.9 °F - 31.1 °F 50% 29.64 in 10.0 mi West 8.1 mph - N/A   Clear
10:35 AM 52.7 °F - 21.9 °F 30% 29.64 in 10.0 mi WNW 9.2 mph - N/A   Clear
10:55 AM 53.8 °F - 21.9 °F 29% 29.63 in 10.0 mi West 10.4 mph - N/A   Clear
11:15 AM 56.1 °F - 20.3 °F 25% 29.63 in 10.0 mi West 12.7 mph - N/A   Clear
11:35 AM 57.0 °F - 20.7 °F 24% 29.61 in 10.0 mi West 11.5 mph 16.1 mph N/A   Clear
11:55 AM 57.6 °F - 20.5 °F 24% 29.60 in 10.0 mi WNW 10.4 mph - N/A   Clear
12:15 PM 59.0 °F - 18.5 °F 21% 29.59 in 10.0 mi West 16.1 mph 21.9 mph N/A   Clear
12:35 PM 59.9 °F - 15.6 °F 18% 29.57 in 10.0 mi West 15.0 mph 20.7 mph N/A   Clear
12:55 PM 60.3 °F - 14.0 °F 16% 29.56 in 10.0 mi WSW 15.0 mph 18.4 mph N/A   Clear
1:15 PM 60.8 °F - 13.3 °F 16% 29.55 in 10.0 mi West 17.3 mph 20.7 mph N/A   Clear
1:35 PM 61.0 °F - 12.2 °F 15% 29.55 in 10.0 mi WSW 11.5 mph 21.9 mph N/A   Clear
1:55 PM 61.3 °F - 11.1 °F 14% 29.53 in 10.0 mi SW 15.0 mph 19.6 mph N/A   Clear
2:15 PM 61.7 °F - 11.7 °F 14% 29.53 in 10.0 mi SW 12.7 mph 18.4 mph N/A   Clear
2:35 PM 61.3 °F - 11.8 °F 14% 29.52 in 10.0 mi SSW 12.7 mph 17.3 mph N/A   Clear
2:55 PM 61.2 °F - 11.5 °F 14% 29.51 in 10.0 mi SSW 13.8 mph 18.4 mph N/A   Clear
3:15 PM 61.3 °F - 12.7 °F 15% 29.50 in 10.0 mi SSW 13.8 mph 17.3 mph N/A   Clear
3:35 PM 61.0 °F - 10.9 °F 14% 29.50 in 10.0 mi SSW 12.7 mph - N/A   Clear
3:55 PM 60.4 °F - 11.5 °F 15% 29.49 in 10.0 mi SSW 10.4 mph 18.4 mph N/A   Clear
4:15 PM 59.9 °F - 12.6 °F 16% 29.49 in 10.0 mi SSW 10.4 mph 16.1 mph N/A   Clear
4:35 PM 56.5 °F - 15.6 °F 20% 29.49 in 10.0 mi South 6.9 mph - N/A   Clear
4:55 PM 55.9 °F - 19.4 °F 24% 29.48 in 10.0 mi SSE 5.8 mph - N/A   Clear
5:15 PM 52.9 °F - 20.1 °F 28% 29.48 in 10.0 mi SSE 3.5 mph - N/A   Clear
5:35 PM 50.7 °F - 18.3 °F 28% 29.47 in 10.0 mi SSE 5.8 mph - N/A   Clear
5:55 PM 50.9 °F - 18.5 °F 28% 29.47 in 10.0 mi SSE 3.5 mph - N/A   Clear
6:15 PM 50.9 °F - 19.0 °F 28% 29.47 in 10.0 mi Calm Calm - N/A   Mostly Cloudy
6:35 PM 50.5 °F - 19.0 °F 29% 29.48 in 10.0 mi Calm Calm - N/A   Overcast
6:55 PM 48.4 °F - 21.2 °F 34% 29.48 in 10.0 mi Calm Calm - N/A   Overcast
7:15 PM 50.5 °F - 19.9 °F 30% 29.49 in 10.0 mi North 5.8 mph - N/A   Overcast
7:35 PM 49.8 °F - 22.1 °F 34% 29.50 in 10.0 mi Calm Calm - N/A   Overcast
7:55 PM 48.9 °F - 23.2 °F 36% 29.50 in 10.0 mi Calm Calm - N/A   Overcast
8:15 PM 50.5 °F - 23.0 °F 34% 29.50 in 10.0 mi West 16.1 mph 19.6 mph N/A   Overcast
8:35 PM 50.9 °F - 24.4 °F 36% 29.49 in 10.0 mi WNW 9.2 mph - N/A   Overcast
8:55 PM 47.7 °F - 26.6 °F 44% 29.49 in 10.0 mi West 15.0 mph - N/A   Mostly Cloudy
9:15 PM 47.7 °F - 28.9 °F 48% 29.49 in 10.0 mi WNW 20.7 mph - N/A   Overcast
9:35 PM 47.5 °F - 29.1 °F 49% 29.49 in 10.0 mi NW 15.0 mph - N/A   Overcast
9:55 PM 46.2 °F 41.2 °F 29.7 °F 53% 29.47 in 10.0 mi NW 10.4 mph - N/A   Overcast
10:15 PM 45.0 °F 41.8 °F 30.2 °F 56% 29.47 in 10.0 mi WNW 5.8 mph - N/A   Overcast
10:35 PM 45.0 °F 39.7 °F 30.7 °F 57% 29.47 in 10.0 mi WNW 10.4 mph - N/A   Overcast
10:55 PM 44.4 °F 41.2 °F 30.7 °F 59% 29.46 in 10.0 mi NW 5.8 mph - N/A   Overcast
11:15 PM 42.6 °F 35.2 °F 30.9 °F 63% 29.46 in 10.0 mi WNW 15.0 mph - N/A   Mostly Cloudy
11:35 PM 43.5 °F 37.9 °F 30.7 °F 61% 29.46 in 10.0 mi WNW 10.4 mph - N/A   Mostly Cloudy
11:55 PM 41.7 °F 35.2 °F 30.2 °F 64% 29.46 in 10.0 mi West 11.5 mph - N/A   Scattered Clouds